GW0751 Weather Reports


Display with metric or nautical units.
time (UTC)temp
F
wind
direction
speed
MPH
gust
MPH
rain 1hr
in
rain 24hr
in
rain mn
in
humidity
%
barometer
mb
20260903145819 61 203 3.0 3.0 0.10 0.00 0.31 97 1013.5
20260903145320 61 248 3.0 3.0 0.10 0.00 0.30 97 1013.5
20260903144804 61 248 2.0 2.0 0.10 0.00 0.29 97 1013.5
20260903144244 61 180 3.0 3.0 0.10 0.00 0.28 97 1013.5
20260903143725 61 270 4.0 4.0 0.10 0.00 0.27 97 1013.4
20260903143204 61 248 4.0 4.0 0.11 0.00 0.26 97 1013.4
20260903142649 61 203 1.0 1.0 0.12 0.00 0.25 97 1013.4
20260903142130 61 203 3.0 3.0 0.14 0.00 0.25 97 1013.4
20260903141609 61 203 3.0 3.0 0.15 0.00 0.24 96 1013.3
20260903141049 61 225 3.0 3.0 0.14 0.00 0.23 96 1013.3
20260903140535 61 248 4.0 4.0 0.13 0.00 0.22 96 1013.1
20260903140014 61 270 1.0 1.0 0.13 0.00 0.21 96 1013.1
20260903135454 60 248 3.0 3.0 0.13 0.00 0.20 96 1013.1
20260903134934 60 180 1.0 1.0 0.12 0.00 0.19 96 1013.1
20260903134419 60 225 1.0 1.0 0.12 0.00 0.18 96 1013.1
20260903133859 60 203 1.0 1.0 0.12 0.00 0.17 96 1013.3
20260903133339 60 203 3.0 3.0 0.10 0.00 0.15 96 1013.3
20260903132306 60 248 3.0 3.0 0.08 0.00 0.11 96 1013.4
20260903131804 60 225 1.0 1.0 0.06 0.00 0.09 96 1013.4
20260903131244 60 270 3.0 3.0 0.06 0.00 0.09 96 1013.4
20260903130725 60 248 1.0 1.0 0.07 0.00 0.09 96 1013.4
20260903130204 60 270 1.0 1.0 0.06 0.00 0.08 96 1013.5
20260903125649 60 225 0.0 0.0 0.07 0.00 0.08 96 1013.5
20260903125129 60 248 0.0 0.0 0.06 0.00 0.07 96 1013.6
20260903124610 60 248 0.0 0.0 0.06 0.00 0.06 96 1013.6
20260903124049 60 270 1.0 1.0 0.05 0.00 0.05 96 1013.8
20260903123014 60 225 2.0 2.0 0.04 0.00 0.04 96 1013.9
20260903122454 60 248 0.0 0.0 0.03 0.00 0.03 96 1013.9
20260903121934 60 158 0.0 0.0 0.03 0.00 0.03 96 1013.9
20260903121419 60 225 0.0 0.0 0.03 0.00 0.03 96 1014.0
20260903120859 60 23 1.0 1.0 0.02 0.00 0.02 96 1014.0
20260903120340 60 225 0.0 0.0 0.02 0.00 0.02 96 1014.0
20260903115819 60 203 0.0 0.0 0.01 0.00 0.01 96 1014.0
20260903115306 60 248 0.0 0.0 0.01 0.00 0.01 96 1014.0
20260903114244 60 180 0.0 0.0 0.00 0.00 0.00 96 1014.0
20260903113724 60 225 1.0 1.0 0.00 0.00 0.00 96 1014.1
20260903113204 60 225 0.0 0.0 0.00 0.00 0.00 96 1014.1
20260903112649 60 203 0.0 0.0 0.00 0.00 0.00 96 1014.2
20260903112129 60 225 0.0 0.0 0.00 0.00 0.00 96 1014.2
20260903111610 60 225 0.0 0.0 0.00 0.00 0.00 96 1014.3
20260903111049 60 225 0.0 0.0 0.00 0.00 0.00 96 1014.3
20260903110534 60 225 0.0 0.0 0.00 0.00 0.00 96 1014.4
20260903110015 60 180 0.0 0.0 0.00 0.00 0.00 96 1014.4
20260903105454 60 225 0.0 0.0 0.00 0.00 0.00 95 1014.4
20260903104934 60 248 0.0 0.0 0.00 0.00 0.00 95 1014.4
20260903103900 59 180 0.0 0.0 0.00 0.00 0.00 95 1014.5
20260903103340 59 113 0.0 0.0 0.00 0.00 0.00 95 1014.5
20260903102819 59 68 0.0 0.0 0.00 0.00 0.00 95 1014.5
20260903101744 60 45 0.0 0.0 0.00 0.00 0.00 95 1014.6
20260903101224 60 180 0.0 0.0 0.00 0.00 0.00 95 1014.6
20260903100705 60 180 0.0 0.0 0.00 0.00 0.00 95 1014.6
20260903100150 60 225 0.0 0.0 0.00 0.00 0.00 95 1014.6
20260903095650 60 248 0.0 0.0 0.00 0.00 0.00 95 1014.6
20260903095129 60 225 0.0 0.0 0.00 0.00 0.00 95 1014.6
20260903094609 60 225 0.0 0.0 0.00 0.00 0.00 95 1014.6
20260903094050 60 225 0.0 0.0 0.00 0.00 0.00 95 1014.8
20260903093535 59 203 0.0 0.0 0.00 0.00 0.00 95 1014.8
20260903092455 59 225 0.0 0.0 0.00 0.00 0.00 95 1015.0
20260903091934 59 135 0.0 0.0 0.00 0.00 0.00 95 1015.0
20260903091419 59 225 0.0 0.0 0.00 0.00 0.00 95 1015.1
20260903090859 59 248 0.0 0.0 0.00 0.00 0.00 95 1015.1
20260903090340 59 203 0.0 0.0 0.00 0.00 0.00 95 1015.2
20260903085820 59 248 0.0 0.0 0.00 0.00 0.00 95 1015.2
20260903085306 59 225 0.0 0.0 0.00 0.00 0.00 94 1015.2
20260903084745 59 203 0.0 0.0 0.00 0.00 0.00 94 1015.2
20260903084225 58 248 0.0 0.0 0.00 0.00 0.00 94 1015.3
20260903083705 58 180 0.0 0.0 0.00 0.00 0.00 94 1015.3
20260903082630 58 225 0.0 0.0 0.00 0.00 0.00 94 1015.3
20260903082110 58 270 0.0 0.0 0.00 0.00 0.00 94 1015.3
20260903081550 58 225 0.0 0.0 0.00 0.00 0.00 94 1015.5
20260903081030 57 203 0.0 0.0 0.00 0.00 0.00 94 1015.5
20260903080515 57 225 0.0 0.0 0.00 0.00 0.00 94 1015.5
20260903075435 57 248 0.0 0.0 0.00 0.00 0.00 94 1015.5
20260903074920 57 270 0.0 0.0 0.00 0.00 0.00 94 1015.5
20260903074400 57 225 0.0 0.0 0.00 0.00 0.00 94 1015.5
20260903073320 58 293 0.0 0.0 0.00 0.00 0.00 94 1015.5
20260903072245 58 203 0.0 0.0 0.00 0.00 0.00 94 1015.5
20260903071745 58 315 0.0 0.0 0.00 0.00 0.00 94 1015.6
20260903071225 58 180 0.0 0.0 0.00 0.00 0.00 94 1015.6
20260903070705 58 180 0.0 0.0 0.00 0.00 0.00 94 1015.6
20260903070205 58 270 0.0 0.0 0.00 0.00 0.00 94 1015.6
20260903065705 58 248 0.0 0.0 0.00 0.00 0.66 94 1015.6
20260903065145 58 225 0.0 0.0 0.00 0.00 0.66 94 1015.7
20260903064630 58 23 0.0 0.0 0.00 0.00 0.66 94 1015.7
20260903063550 58 270 0.0 0.0 0.00 0.00 0.66 94 1015.8
20260903063030 58 113 0.0 0.0 0.00 0.00 0.66 94 1015.8
20260903062515 57 248 0.0 0.0 0.00 0.00 0.66 94 1015.8
20260903061955 57 225 0.0 0.0 0.00 0.00 0.66 94 1015.8
20260903061435 57 225 0.0 0.0 0.00 0.00 0.66 93 1016.0
20260903060915 56 270 0.0 0.0 0.00 0.00 0.66 92 1016.0
20260903060400 56 248 0.0 0.0 0.00 0.00 0.66 92 1015.8
20260903055840 56 270 0.0 0.0 0.00 0.00 0.66 92 1015.8
20260903055320 55 225 0.0 0.0 0.00 0.00 0.66 92 1015.8
20260903054245 56 203 0.0 0.0 0.00 0.00 0.66 92 1015.8
20260903053725 56 225 0.0 0.0 0.00 0.00 0.66 92 1016.0
20260903052130 57 180 0.0 0.0 0.00 0.00 0.66 92 1016.0
20260903051610 57 180 0.0 0.0 0.00 0.00 0.66 92 1016.0
20260903051050 57 225 1.0 1.0 0.00 0.00 0.66 92 1016.0
20260903050530 57 203 0.0 0.0 0.00 0.00 0.66 91 1016.2
20260903050015 57 225 0.0 0.0 0.00 0.00 0.66 91 1016.2
20260903045455 57 203 0.0 0.0 0.00 0.00 0.66 91 1016.2
20260903044935 57 248 0.0 0.0 0.00 0.00 0.66 91 1016.2
20260903044415 57 270 0.0 0.0 0.00 0.00 0.66 91 1016.2
20260903043915 57 270 0.0 0.0 0.00 0.00 0.66 91 1016.2
20260903043400 57 270 0.0 0.0 0.00 0.00 0.66 90 1016.2
20260903042840 58 203 0.0 0.0 0.00 0.00 0.66 90 1016.2
20260903042320 57 23 0.0 0.0 0.00 0.00 0.66 90 1016.2
20260903041800 57 135 0.0 0.0 0.00 0.00 0.66 90 1016.2
20260903041245 57 225 0.0 0.0 0.00 0.00 0.66 90 1016.2
20260903040205 58 135 0.0 0.0 0.00 0.00 0.66 89 1015.8
20260903035130 58 225 0.0 0.0 0.00 0.00 0.66 88 1015.8
20260903034610 58 203 0.0 0.0 0.00 0.00 0.66 88 1015.8
20260903034051 58 180 0.0 0.0 0.00 0.00 0.66 88 1015.8
20260903033530 58 225 0.0 0.0 0.00 0.00 0.66 87 1015.8
20260903033015 58 203 0.0 0.0 0.00 0.00 0.66 87 1015.6
20260903032455 59 248 0.0 0.0 0.00 0.00 0.66 86 1015.6
20260903031935 59 225 0.0 0.0 0.00 0.00 0.66 86 1015.6
20260903031416 59 135 0.0 0.0 0.00 0.00 0.66 85 1015.5
20260903030900 59 225 0.0 0.0 0.00 0.00 0.66 85 1015.5
20260903030340 59 203 0.0 0.0 0.00 0.00 0.66 85 1015.5
20260903025840 60 225 1.0 1.0 0.00 0.00 0.66 85 1015.5
20260903025321 60 180 0.0 0.0 0.00 0.00 0.66 84 1015.7
20260903024800 60 225 0.0 0.0 0.00 0.00 0.66 84 1015.7
20260903024245 60 225 0.0 0.0 0.00 0.00 0.66 84 1015.7
20260903023725 60 248 1.0 1.0 0.00 0.00 0.66 83 1015.6
20260903023205 60 248 1.0 1.0 0.00 0.00 0.66 83 1015.6
20260903022645 61 248 3.0 3.0 0.00 0.00 0.66 82 1015.7
20260903022130 61 225 0.0 0.0 0.00 0.00 0.66 81 1015.7
20260903021050 61 293 2.0 2.0 0.00 0.00 0.66 80 1015.7
20260903020015 62 225 3.0 3.0 0.00 0.00 0.66 79 1015.7
20260903015455 62 203 4.0 4.0 0.00 0.00 0.66 79 1015.7
20260903014935 62 113 2.0 2.0 0.00 0.00 0.66 78 1015.8
20260903014415 62 158 4.0 4.0 0.00 0.00 0.66 78 1015.8
20260903013900 63 270 3.0 3.0 0.00 0.00 0.66 77 1015.8
20260903013340 63 248 5.0 5.0 0.00 0.00 0.66 77 1015.8
20260903012820 63 225 5.0 5.0 0.00 0.00 0.66 76 1015.8
20260903012300 64 270 4.0 4.0 0.00 0.00 0.66 75 1015.8
20260903011800 64 270 3.0 3.0 0.00 0.00 0.66 74 1016.0
20260903011245 65 203 5.0 5.0 0.00 0.00 0.66 73 1016.0
20260903010741 65 293 4.0 4.0 0.00 0.00 0.66 72 1016.0
20260903010205 66 270 5.0 5.0 0.00 0.00 0.66 71 1016.0
20260903005645 67 225 6.0 6.0 0.00 0.00 0.66 68 1016.0
20260903005125 68 203 4.0 4.0 0.00 0.00 0.66 68 1016.0
20260903004611 69 180 5.0 5.0 0.00 0.00 0.66 66 1016.0
20260903004051 71 225 4.0 4.0 0.00 0.00 0.66 64 1015.8
20260903003530 71 203 5.0 5.0 0.00 0.00 0.66 64 1015.8
20260903003010 71 225 5.0 5.0 0.00 0.00 0.66 64 1015.8
20260903002455 72 248 5.0 5.0 0.00 0.00 0.66 63 1015.8
20260903001935 73 248 5.0 5.0 0.00 0.00 0.66 62 1015.8
20260903000855 73 203 5.0 5.0 0.00 0.00 0.66 62 1016.0
20260903000335 74 270 5.0 5.0 0.00 0.00 0.66 61 1016.0
20260902235300 74 203 5.0 5.0 0.00 0.00 0.66 62 1016.0
20260902234740 75 203 5.0 5.0 0.00 0.00 0.66 59 1016.0
20260902234220 76 203 5.0 5.0 0.00 0.00 0.66 58 1016.0
20260902233705 77 225 3.0 3.0 0.00 0.00 0.66 58 1016.0
20260902233146 77 180 4.0 4.0 0.00 0.00 0.66 58 1016.0
20260902232625 78 225 6.0 6.0 0.00 0.00 0.66 57 1016.2
20260902232105 77 203 3.0 3.0 0.00 0.00 0.66 59 1016.2
20260902231550 77 203 4.0 4.0 0.00 0.00 0.66 59 1016.4
20260902231030 77 90 4.0 4.0 0.00 0.00 0.66 59 1016.4
20260902225936 75 248 4.0 4.0 0.00 0.00 0.66 61 1016.5
20260902225415 74 203 3.0 3.0 0.00 0.00 0.66 62 1016.5
20260902224855 74 270 4.0 4.0 0.00 0.00 0.66 62 1016.5
20260902224335 75 225 4.0 4.0 0.00 0.00 0.66 61 1016.5
20260902222546 76 225 4.0 4.0 0.00 0.00 0.66 60 1016.5
20260902221300 78 203 5.0 5.0 0.00 0.00 0.66 58 1016.5
20260902220740 76 203 4.0 4.0 0.00 0.00 0.66 61 1016.5
20260902220221 77 203 5.0 5.0 0.00 0.00 0.66 59 1016.5
20260902215646 77 270 5.0 5.0 0.00 0.00 0.66 61 1016.5
20260902214545 74 203 5.0 5.0 0.00 0.00 0.66 62 1016.7
20260902213431 75 248 4.0 4.0 0.00 0.00 0.66 62 1016.7
20260902212916 74 225 4.0 4.0 0.00 0.00 0.66 62 1016.7
20260902212356 74 203 4.0 4.0 0.00 0.00 0.66 62 1016.7
20260902211836 75 203 3.0 3.0 0.00 0.00 0.66 62 1016.7
20260902211316 75 225 3.0 3.0 0.00 0.00 0.66 63 1016.7
20260902210816 74 248 5.0 5.0 0.00 0.00 0.66 63 1016.7
20260902205740 73 203 4.0 4.0 0.00 0.00 0.66 65 1016.7
20260902205220 73 270 6.0 6.0 0.00 0.00 0.66 64 1016.9
20260902204701 74 270 3.0 3.0 0.00 0.00 0.66 64 1016.9
20260902204045 75 270 4.0 4.0 0.00 0.00 0.66 62 1016.9
20260902203531 75 293 3.0 3.0 0.00 0.00 0.66 61 1016.9
20260902203025 75 225 3.0 3.0 0.00 0.00 0.66 64 1016.9
20260902202511 75 293 2.0 2.0 0.00 0.00 0.66 65 1017.0
20260902201951 74 248 3.0 3.0 0.00 0.00 0.66 65 1017.0
20260902201431 74 180 3.0 3.0 0.00 0.00 0.66 65 1017.0
20260902200911 74 225 3.0 3.0 0.00 0.00 0.66 66 1017.0
20260902195836 74 225 4.0 4.0 0.00 0.00 0.66 66 1017.2
20260902195315 73 225 3.0 3.0 0.00 0.00 0.66 68 1017.3
20260902194816 73 180 3.0 3.0 0.00 0.00 0.66 66 1017.3
20260902194256 72 293 3.0 3.0 0.00 0.00 0.66 68 1017.3
20260902193741 72 180 3.0 3.0 0.00 0.00 0.66 67 1017.3
20260902193220 71 293 3.0 3.0 0.00 0.00 0.66 68 1017.3
20260902192701 71 248 3.0 3.0 0.00 0.00 0.66 69 1017.2
20260902192141 71 248 4.0 4.0 0.00 0.00 0.66 68 1017.2
20260902191642 71 225 3.0 3.0 0.00 0.00 0.66 69 1017.3
20260902191126 69 90 4.0 4.0 0.00 0.00 0.66 71 1017.3
20260902190606 69 203 3.0 3.0 0.00 0.00 0.66 72 1017.4
20260902190046 69 180 2.0 2.0 0.00 0.00 0.66 72 1017.4
20260902185526 69 203 3.0 3.0 0.00 0.00 0.66 71 1017.4
20260902185011 70 270 4.0 4.0 0.00 0.00 0.66 70 1017.4
20260902184451 73 248 4.0 4.0 0.00 0.00 0.66 67 1017.4
20260902183931 73 225 3.0 3.0 0.00 0.00 0.66 67 1017.3
20260902183411 73 180 4.0 4.0 0.00 0.00 0.66 68 1017.3
20260902182856 72 203 3.0 3.0 0.00 0.00 0.66 71 1017.2
20260902182336 69 180 5.0 5.0 0.01 0.00 0.66 72 1017.2
20260902181816 70 270 4.0 4.0 0.01 0.00 0.66 71 1017.1
20260902181256 70 270 4.0 4.0 0.01 0.00 0.66 72 1017.1
20260902180741 71 270 4.0 4.0 0.01 0.00 0.66 72 1017.1
20260902180221 72 248 6.0 6.0 0.01 0.00 0.66 71 1017.0
20260902175140 69 180 3.0 3.0 0.01 0.00 0.66 77 1016.9
20260902174626 68 293 4.0 4.0 0.01 0.00 0.66 77 1016.9
20260902174121 68 225 2.0 2.0 0.01 0.00 0.66 78 1016.7
20260902173606 68 225 3.0 3.0 0.01 0.00 0.66 79 1016.7
20260902173046 67 113 0.0 0.0 0.01 0.00 0.66 84 1016.7
20260902172526 66 158 0.0 0.0 0.01 0.00 0.65 83 1016.7
20260902170911 64 180 3.0 3.0 0.01 0.00 0.65 87 1016.5
20260902170351 63 248 1.0 1.0 0.01 0.00 0.65 89 1016.5
20260902165836 63 248 3.0 3.0 0.01 0.00 0.65 90 1016.5
20260902164756 62 203 1.0 1.0 0.01 0.00 0.65 90 1016.2
20260902164237 63 225 0.0 0.0 0.01 0.00 0.65 92 1016.2
20260902163721 62 203 0.0 0.0 0.01 0.00 0.65 93 1016.2
20260902162641 62 293 2.0 2.0 0.00 0.00 0.64 94 1016.2
20260902161607 61 203 4.0 4.0 0.00 0.00 0.64 95 1016.0
20260902160526 61 270 1.0 1.0 0.00 0.00 0.64 96 1016.0
20260902160009 61 248 0.0 0.0 0.00 0.00 0.64 96 1016.0
20260902155451 60 270 0.0 0.0 0.00 0.00 0.64 96 1016.0
20260902154931 60 248 0.0 0.0 0.00 0.00 0.64 96 1016.2
20260902154411 60 270 2.0 2.0 0.01 0.00 0.64 96 1016.2
20260902153336 60 248 0.0 0.0 0.02 0.00 0.64 96 1016.0
20260902152816 60 158 0.0 0.0 0.02 0.00 0.64 96 1016.0
20260902152256 60 180 0.0 0.0 0.02 0.00 0.64 96 1016.0
20260902151221 59 248 0.0 0.0 0.02 0.00 0.64 96 1015.8
20260902150701 59 248 2.0 2.0 0.02 0.00 0.64 96 1015.8